Torna al catalogo

RADUGA 1M-3 DEB

LostMEO
NORAD 55000·DEBRIS·🇷🇺 Russia

Lanciato Nov 11, 2013 da Baikonur Cosmodrome

Loading…

Prossimi Passaggi (prossime 24 ore)

TLE

ObsoletoSource: Space-Track

Epoca: Oct 11, 2025, 13:43 UTC

1 55000U 13062D   25284.57208225  .00000077  00000-0  00000-0 0  9998
2 55000   5.4792  74.3918 0123325 152.0340 208.7289  1.00415276 20613

Traccia RADUGA 1M-3 DEB in tempo reale con AllMySat

Download on the App Store